BLACK BUTTE (BLB)

Elevation: 426' · STONY CR basin · Operator: US Army Corps of Engineers

Provisional data, subject to change.
Query executed Wednesday at 6:38:45   clock

Select a sensor type for a plot of data.
Note: Reservoir Flows are daily averages.

Earlier

Date RES ELE    STORAGE    RES CHG    TOC STO    ABV TOC    OUTFLOW    INFLOW    PPT INC    TEMP MN    TEMP MX    EVP PAN   
 FEET   AF   AF   AF   AF   CFS   CFS   INCHES   DEG F   DEG F   INCHES  
09/23/2014 442.83 37170 -20 136200 -99030 5 11 0.00 14 31 0.21
09/24/2014 442.81 37130 -40 136200 -99070 18 13 0.00 15 30 0.21
09/25/2014 442.69 36887 -243 136200 -99313 153 39 0.28 16 21 0.11
09/26/2014 442.60 36706 -181 136200 -99494 60 -19 0.00 15 27 0.16
09/27/2014 442.59 36686 -20 136200 -99514 6 8 0.00 12 29 0.17
09/28/2014 442.58 36666 -20 136200 -99534 5 2 0.00 16 22 0.10
09/29/2014 442.57 36646 -20 136200 -99554 5 7 0.00 14 26 0.16
09/30/2014 442.54 36586 -60 136200 -99614 5 -11 0.01 15 29 0.18
10/01/2014 442.49 36485 -101 136200 -99715 14 -18 0.00 19 30 0.23
10/02/2014 442.38 36266 -219 136200 -99934 124 27 0.00 15 34 0.17
10/03/2014 442.22 35947 -319 136200 -100253 160 13 0.00 18 37 0.18
10/04/2014 442.03 35571 -376 136200 -100629 175 -2 0.01 17 36 0.17
10/05/2014 441.83 35178 -393 135840 -100662 195 11 0.00 18 38 0.18
10/06/2014 441.57 34671 -507 134360 -99689 245 2 0.00 17 36 0.16
10/07/2014 441.32 34188 -483 132880 -98692 218 -11 0.00 18 36 0.19
10/08/2014 441.13 33824 -364 136200 -102376 167 -3 0.01 18 36 0.18
10/09/2014 440.98 33537 -287 129920 -96383 125 -8 0.00 16 33 0.15
10/10/2014 440.86 33310 -227 128440 -95130 86 -18 0.00 15 34 0.14
10/11/2014 440.84 33272 -38 126960 -93688 6 -2 0.00 16 33 0.16
10/12/2014 440.80 33196 -76 125497 -92304 5 -16 0.00 20 32 0.23
10/13/2014 440.80 33196 0 124013 -90814 5 16 0.00 16 30 0.15
10/14/2014 440.79 33177 -19 122533 -89353 5 5 0.00 12 22 0.13
10/15/2014 440.77 33140 -37 121056 -12072497 15 8 0.01 14 23 0.15
10/16/2014 440.66 32932 -208 119563 -86631 129 33 0.00 13 24 0.12
10/17/2014 440.47 32576 -356 118083 -85507 180 8 0.00 10 23 0.11
10/18/2014 440.23 32130 -446 116590 -84460 186 -30 0.00 16 29 0.13
10/19/2014 440.02 31743 -387 115105 -83362 160 -26 0.01 12 27 0.13
10/20/2014 439.82 31377 -366 113624 -82247 173 -2 0.00 12 24 0.13
10/21/2014 439.64 31049 -328 121333 -90284 126 -- 0.00 9 22 0.10
10/22/2014 -- -- -- -- -- -- -- -- -- -- --

Later | Latest

Warning! This data is preliminary and subject to revision.

Show BLB Map | Plot BLB Data | 1 Month BLB Data | Real-Time BLB Data | BLB Info